This is the latest recevied weather packets stored in our database for station/object VR2HK-13. If no packets are shown the sender has not sent any weather packets the latest 10 day(s).
| Time | Temp. | Humidity | Pressure | Rain* | Wind** | Luminosity | Snow |
|---|---|---|---|---|---|---|---|
| 1778262634 | 24.44° C | 87% | 1013.3 hPa | 0 mm | - | - | - |
| 1778262455 | 24.44° C | 87% | 1013.2 hPa | 0 mm | - | - | - |
| 1778262334 | 24.44° C | 87% | 1013.3 hPa | 0 mm | - | - | - |
| 1778262146 | 24.44° C | 87% | 1013.1 hPa | 0 mm | - | - | - |
| 1778262033 | 24.44° C | 87% | 1013.3 hPa | 0 mm | - | - | - |
| 1778261835 | 25° C | 87% | 1013.2 hPa | 0 mm | - | - | - |
| 1778261734 | 25° C | 87% | 1013.3 hPa | 0 mm | - | - | - |
| 1778261525 | 25° C | 87% | 1013.3 hPa | 0 mm | - | - | - |
| 1778261434 | 25° C | 87% | 1013.3 hPa | 0 mm | - | - | - |
| 1778261215 | 25° C | 87% | 1013.3 hPa | 0 mm | - | - | - |
| 1778261134 | 25° C | 87% | 1013.3 hPa | 0 mm | - | - | - |
| 1778260905 | 25° C | 87% | 1013.3 hPa | 0.51 mm | - | - | - |
| 1778260834 | 25° C | 87% | 1013.3 hPa | 0.76 mm | - | - | - |
| 1778260595 | 25° C | 87% | 1013.2 hPa | 3.56 mm | - | - | - |
| 1778260534 | 25° C | 87% | 1013.2 hPa | 3.56 mm | - | - | - |
| 1778260285 | 25° C | 87% | 1013.1 hPa | 4.57 mm | - | - | - |
| 1778260233 | 25° C | 87% | 1013.2 hPa | 4.57 mm | - | - | - |
| 1778259975 | 25° C | 87% | 1013.1 hPa | 5.59 mm | - | - | - |
| 1778259934 | 25° C | 87% | 1013.2 hPa | 5.59 mm | - | - | - |
| 1778259665 | 25° C | 87% | 1013.2 hPa | 6.1 mm | - | - | - |
| 1778259633 | 25° C | 86% | 1013.3 hPa | 7.11 mm | - | - | - |
| 1778259356 | 25.56° C | 87% | 1013.3 hPa | 9.4 mm | - | - | - |
| 1778259334 | 25.56° C | 86% | 1013.3 hPa | 9.4 mm | - | - | - |
| 1778259045 | 25.56° C | 86% | 1013.3 hPa | 12.45 mm | - | - | - |
| 1778259033 | 25.56° C | 86% | 1013.3 hPa | 12.45 mm | - | - | - |
* Rain latest hour (hover to see other rain measurements)
** Current wind speed in m/s (hover to see current wind gust speed)